User: anonymous   Login
Location: Arrakis Observatory
(44.1122°N, 95.7153°W)
Time: 12:17:32
(UTC-05:00)
Language:

Iridium 35 - Orbit

View from above orbital plane
View from above orbital plane
View from above satellite
View from above satellite

Ground track
Ground track

The orbit data is extracted from the following two-line orbital elements,

1 24966U 97056B   15125.40233195  .00000113  00000-0  33336-4 0  9992
2 24966 086.3930 282.1145 0002185 093.9698 266.1748 14.34212776921622
Epoch (UTC): 05 May 2015 09:39:21
Eccentricity: 0.0002185
inclination: 86.3930°
perigee height: 776 km
apogee height: 779 km
right ascension of ascending node: 282.1145°
argument of perigee: 93.9698°
revolutions per day: 14.34212776
mean anomaly at epoch: 266.1748°
orbit number at epoch: 92162

The dashed part of the orbit path shows where the satellite is in the earth's shadow,  

DLR